This is the latest recevied weather packets stored in our database for station/object W0JRT-6. If no packets are shown the sender has not sent any weather packets the latest 10 day(s).
| Time | Temp. | Humidity | Pressure | Rain* | Wind** | Luminosity | Snow |
|---|---|---|---|---|---|---|---|
| 1777846804 | 27.22° C | 31% | 1001.9 hPa | 0 mm | - | - | - |
| 1777846205 | 27.22° C | 30% | 1002 hPa | 0 mm | - | - | - |
| 1777845601 | 27.22° C | 30% | 1002.1 hPa | 0 mm | - | - | - |
| 1777845010 | 27.22° C | 32% | 1002.3 hPa | 0 mm | - | - | - |
| 1777844398 | 27.22° C | 32% | 1002.4 hPa | 0 mm | - | - | - |
| 1777843799 | 27.22° C | 33% | 1002.6 hPa | 0 mm | - | - | - |
| 1777843198 | 27.22° C | 31% | 1002.7 hPa | 0 mm | - | - | - |
| 1777842604 | 26.67° C | 36% | 1002.8 hPa | 0 mm | - | - | - |
| 1777842011 | 27.22° C | 32% | 1002.9 hPa | 0 mm | - | - | - |
| 1777841404 | 26.67° C | 31% | 1003 hPa | 0 mm | - | - | - |
| 1777840798 | 27.22° C | 31% | 1003.2 hPa | 0 mm | - | - | - |
| 1777840199 | 27.22° C | 33% | 1003.2 hPa | 0 mm | - | - | - |
| 1777839601 | 26.67° C | 30% | 1003.5 hPa | 0 mm | - | - | - |
| 1777839006 | 26.67° C | 30% | 1003.6 hPa | 0 mm | - | - | - |
| 1777838405 | 26.67° C | 30% | 1003.8 hPa | 0 mm | - | - | - |
| 1777837807 | 26.67° C | 33% | 1003.9 hPa | 0 mm | - | - | - |
| 1777837208 | 26.67° C | 30% | 1004.1 hPa | 0 mm | - | - | - |
| 1777836602 | 26.67° C | 31% | 1004.1 hPa | 0 mm | - | - | - |
| 1777836010 | 26.67° C | 31% | 1004.2 hPa | 0 mm | - | - | - |
| 1777835398 | 26.11° C | 31% | 1004.3 hPa | 0 mm | - | - | - |
| 1777834207 | 26.11° C | 33% | 1004.5 hPa | 0 mm | - | - | - |
| 1777831800 | 25.56° C | 35% | 1005.4 hPa | 0 mm | - | - | - |
| 1777831201 | 25° C | 37% | 1005.6 hPa | 0 mm | - | - | - |
| 1777830610 | 25° C | 39% | 1005.6 hPa | 0 mm | - | - | - |
| 1777829998 | 24.44° C | 42% | 1005.9 hPa | 0 mm | - | - | - |
* Rain since midnight (hover to see other rain measurements)
** Current wind speed in m/s (hover to see current wind gust speed)